Theta_e
355 351 347 344 343 344 343 343 344 344 342 343 342 339 339 339 337 334 335 337 336 336 339 344 348 347 342 337 335 335 334 333 334 335 336 337 338 339 341 342 339 338 339 340 342 346 347 344 343 344 344 344 344 345 347 349 350 347 345 344 343 342 342 340 338 333 332 333 332 332 332 333 336 340 344 345 343 340 337 335 334 333 331 329 330
358 352 348 346 345 344 343 343 344 343 343 343 342 340 338 338 337 336 338 340 340 341 340 341 345 347 344 341 337 337 337 335 335 336 335 335 336 336 339 343 340 337 338 340 340 344 346 343 341 341 342 342 341 340 343 349 353 352 351 349 349 349 350 349 346 341 334 332 332 331 331 332 333 333 335 336 334 334 334 332 331 332 332 332 334
359 354 350 347 345 344 344 344 343 343 342 341 339 338 337 336 336 337 341 343 342 343 344 342 342 344 346 344 340 339 341 339 338 338 336 334 334 334 335 337 338 337 336 337 339 341 342 341 339 339 341 342 343 340 341 348 353 354 354 354 354 355 355 354 353 348 340 333 330 331 330 330 331 330 331 332 332 333 333 333 333 335 336 337 340
361 357 352 348 346 345 345 345 343 342 342 340 338 338 338 336 335 336 340 345 345 344 345 343 341 342 344 346 344 342 342 341 340 340 340 337 333 333 333 334 336 336 335 336 337 338 339 339 338 338 339 342 344 343 340 342 346 350 352 352 353 354 355 356 353 349 343 335 330 330 330 330 330 330 331 331 333 335 338 339 340 341 341 343 346
364 359 354 351 348 346 346 346 344 341 342 340 338 340 344 343 340 338 339 344 348 347 346 345 343 341 340 343 344 344 343 342 341 341 342 340 336 333 332 334 335 335 334 334 334 334 335 336 336 336 338 342 344 343 342 340 341 344 347 348 351 351 351 349 346 342 341 336 332 332 332 331 331 330 332 337 340 341 343 344 345 345 345 348 350
365 362 358 354 350 347 346 346 346 343 342 343 341 341 347 351 348 344 341 343 348 351 350 347 345 341 337 336 339 340 340 342 341 339 340 341 339 335 334 334 333 334 333 331 331 331 331 334 336 337 336 338 341 342 343 344 344 343 343 344 346 348 348 346 343 340 340 339 337 336 334 332 333 333 337 346 350 348 348 349 349 349 351 354 355
365 364 360 356 352 349 346 346 347 346 345 346 346 346 350 354 354 350 346 345 348 353 353 350 347 345 339 335 335 336 337 340 340 337 336 339 339 337 337 336 334 332 331 331 330 330 330 330 333 334 334 334 336 339 342 344 344 342 340 338 337 339 341 343 343 344 346 346 345 343 340 338 338 338 341 347 351 351 353 354 354 353 354 355 355
364 364 362 358 354 350 347 347 348 349 349 349 350 352 352 354 355 354 352 349 349 352 354 353 351 349 345 339 336 335 335 336 337 335 334 335 337 338 339 338 336 333 330 330 330 331 335 338 337 336 337 336 334 334 337 339 340 338 335 334 334 336 338 340 343 346 347 348 347 346 345 344 342 342 343 347 351 353 356 357 356 356 356 356 355
364 364 362 359 355 352 350 350 350 350 351 351 351 354 355 353 354 355 355 353 351 350 353 355 354 352 350 344 339 337 336 335 335 334 332 332 335 336 337 337 336 334 331 330 330 331 337 346 351 349 348 345 342 339 337 336 337 336 333 334 337 340 342 342 344 344 344 344 343 343 345 344 342 344 347 350 354 356 356 357 358 358 358 357 355
364 364 363 360 356 354 353 352 352 351 351 351 350 353 355 354 354 355 355 354 353 351 350 354 356 355 353 349 344 340 337 335 333 332 332 331 331 334 335 334 334 333 332 331 331 331 334 340 347 350 350 350 349 347 344 341 338 335 332 334 337 339 340 340 341 342 342 341 339 340 343 343 342 346 350 353 354 355 357 358 359 358 356 354 353
362 363 363 362 359 357 356 354 354 352 351 349 349 351 353 355 355 355 356 355 354 352 350 351 355 357 355 352 347 341 337 335 334 332 332 331 331 331 332 332 332 332 332 332 331 331 334 335 339 342 345 346 347 348 348 343 336 330 330 331 333 334 334 334 336 336 337 337 336 337 341 340 341 346 351 354 356 356 357 356 354 353 352 352 354
362 362 364 363 361 359 357 356 356 354 352 350 349 349 352 355 355 354 354 355 355 354 351 351 353 356 358 356 352 345 337 334 334 333 332 331 331 331 331 331 331 330 331 332 330 329 331 334 336 340 343 345 345 345 345 341 333 329 328 328 329 329 330 330 331 331 332 332 332 332 334 335 337 341 347 351 353 352 350 348 348 349 351 354 356
362 362 362 362 362 360 358 357 356 355 353 352 350 349 350 354 355 354 354 355 355 355 354 352 351 353 356 358 357 353 345 338 335 333 332 332 331 331 331 331 331 331 330 329 330 330 329 329 330 334 338 343 346 346 344 339 335 332 330 329 328 327 327 328 329 329 329 330 330 330 330 331 332 334 337 341 344 344 344 345 347 350 353 356 356
363 361 362 362 362 361 359 358 357 356 354 353 353 352 350 351 353 354 353 354 355 355 355 354 353 352 354 357 357 356 353 350 343 337 333 331 331 332 332 331 332 332 331 330 331 332 331 329 326 326 327 331 338 344 345 339 334 332 330 328 326 326 327 327 327 328 329 329 329 329 329 330 332 334 337 341 344 346 347 349 352 354 355 356 355
362 362 361 362 363 362 360 360 358 357 356 355 355 353 351 350 351 353 354 354 354 355 355 356 355 352 352 354 356 357 357 356 354 348 341 335 331 332 332 332 333 334 335 338 338 338 337 335 332 328 325 325 327 333 336 335 331 329 327 326 326 326 326 327 327 328 328 330 330 331 333 335 337 341 344 347 350 352 353 354 356 355 355 356 356
362 362 362 362 363 363 362 360 359 359 358 356 356 355 353 351 350 352 354 355 355 356 355 356 356 354 352 351 353 357 358 357 358 356 350 343 338 337 336 334 333 334 339 345 348 348 347 345 341 334 328 325 324 326 330 331 330 328 327 327 327 326 326 326 326 327 327 329 331 334 337 339 342 346 349 352 355 356 357 358 357 357 357 357 356
362 362 362 363 362 364 363 361 361 360 359 358 355 354 354 353 351 352 354 355 357 358 357 356 357 357 355 352 350 352 355 357 358 357 354 351 349 347 343 338 335 333 335 340 346 350 352 351 348 341 332 326 323 325 329 332 332 330 329 330 330 330 329 329 331 331 331 332 334 337 341 344 348 353 355 358 359 360 360 359 358 358 358 356 353
362 363 363 363 363 364 364 363 362 361 360 359 356 355 355 354 352 351 352 355 360 361 360 358 357 357 357 355 352 349 350 353 355 355 354 354 354 354 350 344 339 335 334 334 337 341 344 344 344 341 335 328 325 325 329 332 334 332 330 332 334 333 330 332 335 336 336 339 342 343 347 353 356 358 359 360 361 361 361 359 357 356 356 354 352
361 362 363 363 364 365 365 364 364 363 361 360 359 358 357 356 354 352 351 354 360 362 361 361 360 359 358 358 356 352 350 350 351 351 350 349 352 353 353 350 345 340 338 337 336 335 336 335 335 334 332 329 328 327 328 331 333 332 332 335 335 333 331 332 335 337 341 346 349 350 353 357 358 359 361 362 362 360 359 358 356 355 355 353 352
361 361 363 363 364 365 366 365 365 364 363 362 362 362 360 359 357 354 351 352 356 360 360 362 364 362 360 359 359 356 353 350 347 346 345 345 346 349 351 351 347 343 341 340 339 337 336 334 333 332 331 329 328 328 329 329 331 332 335 337 335 333 335 338 341 344 348 352 353 353 355 358 358 359 361 361 360 358 357 356 356 357 356 354 352
361 361 363 364 364 366 367 367 366 366 366 364 364 363 362 361 359 358 355 354 355 357 359 361 363 363 361 360 360 360 356 352 348 346 345 344 344 347 348 348 345 345 345 343 341 341 338 336 335 332 331 330 329 330 330 330 331 333 336 337 337 337 340 344 346 347 350 353 354 354 356 358 359 360 360 360 357 357 357 358 357 358 357 356 353
360 362 363 364 366 368 369 367 366 367 367 366 365 363 363 363 361 360 359 357 355 354 356 359 360 361 362 361 361 360 359 356 353 352 349 347 346 347 349 347 345 345 346 345 344 343 341 340 338 336 335 334 335 335 335 335 336 337 338 339 342 344 345 346 347 348 349 351 353 355 356 357 358 357 357 356 355 356 357 357 356 356 356 354 352
360 362 363 364 366 369 370 368 367 368 368 367 364 363 364 364 363 361 360 359 357 354 355 356 358 359 360 361 361 360 360 360 359 357 356 354 352 351 349 348 347 346 347 347 345 344 343 343 344 344 344 344 343 343 343 343 344 342 342 344 347 348 349 349 349 349 349 350 350 352 354 355 355 354 352 351 354 356 356 356 356 354 352 351 348
360 361 363 364 367 369 369 369 368 368 368 368 365 364 363 364 365 363 361 360 358 356 355 356 356 356 357 359 360 360 360 360 360 360 360 358 357 354 352 351 350 349 349 349 348 347 348 349 350 351 352 352 352 352 351 352 352 351 350 350 351 352 352 351 349 349 348 348 347 347 348 350 351 351 350 352 355 357 356 356 355 353 352 351 343
361 362 364 364 366 369 370 369 369 368 368 368 366 364 363 364 365 364 361 360 360 359 357 356 356 355 355 356 358 359 360 360 360 361 360 359 357 355 353 353 353 352 351 350 350 352 353 354 355 355 356 358 359 359 359 358 357 355 354 353 352 352 352 350 348 348 347 346 345 345 345 346 347 349 352 355 357 357 355 355 355 354 353 350 339
361 362 364 365 366 368 370 370 369 368 368 369 367 365 364 363 363 362 361 360 360 360 359 359 357 356 355 355 357 359 359 360 361 360 359 359 357 356 354 354 354 354 354 354 354 355 354 355 356 358 360 361 362 362 362 361 360 359 357 355 353 352 351 350 349 349 348 347 347 347 347 348 350 353 356 358 357 355 355 352 348 345 342 338 329
361 363 365 366 366 368 369 369 370 369 368 368 369 368 366 363 361 361 361 360 361 360 359 359 358 357 357 356 356 358 358 360 360 360 359 359 358 357 356 355 354 356 357 357 356 356 355 355 356 358 360 362 362 362 362 361 361 360 360 358 355 353 353 352 350 350 349 349 349 349 350 352 355 356 357 358 356 355 355 350 340 331 327 326 323
362 364 365 366 367 368 368 369 369 369 369 369 369 369 368 363 359 358 357 357 360 360 358 358 357 358 358 357 355 356 357 357 359 360 360 360 360 359 357 355 355 357 359 358 357 357 357 357 357 357 358 359 360 361 361 360 360 360 359 359 358 356 355 354 352 351 351 351 351 352 353 355 357 357 358 359 356 354 353 346 332 325 325 324 324
363 365 366 367 368 368 368 369 369 368 369 370 369 369 367 363 359 359 356 355 357 358 356 357 357 357 358 357 355 356 355 355 356 358 360 361 362 360 357 358 360 361 361 360 358 359 358 358 358 358 358 359 360 360 360 360 360 359 359 359 359 358 356 355 353 352 352 352 352 354 355 356 357 358 358 356 353 354 353 343 329 324 325 323 326
365 366 367 367 368 367 368 369 368 368 369 369 369 368 367 364 362 361 359 357 358 359 359 359 358 358 359 359 358 357 355 353 353 357 361 363 363 362 360 362 364 366 365 364 362 361 360 359 358 359 359 360 360 360 360 360 360 359 359 359 358 357 356 355 354 354 354 353 354 354 356 357 357 357 357 355 353 353 349 338 327 325 325 325 331
365 367 367 367 366 367 368 368 368 368 369 369 367 366 366 365 363 363 363 361 359 359 361 361 360 358 358 359 360 359 358 358 359 360 363 364 365 365 365 365 367 368 367 365 364 363 361 360 360 359 360 360 360 360 360 360 360 360 359 359 358 357 356 356 357 357 357 357 356 357 357 358 357 357 357 354 351 348 341 333 328 326 325 329 335
366 366 367 368 367 367 368 368 368 367 367 367 366 366 365 365 364 364 365 364 362 359 358 359 360 360 360 360 362 362 362 362 363 365 366 367 367 367 368 368 368 368 367 365 362 362 362 361 361 360 360 360 361 361 360 361 361 360 359 358 358 358 357 356 357 358 358 359 358 358 358 358 357 354 352 348 344 341 337 334 331 330 329 333 336
364 365 366 367 367 366 368 369 367 367 367 366 365 366 365 364 364 363 363 364 366 363 360 359 362 365 365 364 364 363 363 364 365 366 366 367 368 369 369 369 369 369 367 364 361 361 361 361 361 361 361 361 361 361 361 360 360 359 359 359 358 358 358 357 357 358 358 358 358 358 357 356 351 347 344 342 339 337 336 335 335 335 334 334 335
361 361 361 365 366 366 367 368 366 366 368 367 364 365 365 363 364 364 363 364 366 367 364 362 363 365 367 368 367 366 365 367 368 368 367 368 368 369 370 370 369 368 366 363 360 360 361 361 361 362 361 361 361 361 361 361 360 359 359 359 359 358 358 358 358 357 356 357 356 354 352 348 344 341 340 338 334 333 335 336 336 336 335 333 332
359 358 359 363 366 363 364 367 365 364 367 369 365 365 365 365 365 365 364 364 366 367 367 366 365 365 366 367 367 368 368 368 369 368 368 368 368 369 370 369 368 368 365 363 361 360 360 360 360 361 361 361 361 361 361 360 360 359 359 359 359 358 358 358 358 357 355 355 352 347 343 341 339 337 337 335 330 330 333 335 335 335 333 329 328
361 360 362 364 365 363 365 368 365 363 367 370 369 368 368 368 368 367 366 366 366 366 367 367 366 366 366 366 366 366 367 367 368 368 369 369 368 368 368 367 366 365 364 363 362 361 360 360 360 360 360 361 361 361 361 361 360 360 359 359 358 358 357 357 358 355 354 352 348 342 338 338 337 334 333 334 333 332 334 335 334 333 328 323 321
357 359 361 365 365 365 367 370 368 366 367 369 370 371 371 369 369 369 368 368 368 368 368 367 367 366 366 366 365 366 365 366 365 365 366 367 368 367 367 366 365 364 363 362 362 361 360 361 360 360 361 361 361 362 362 361 360 360 359 358 358 357 356 355 356 354 352 351 347 341 336 335 333 328 326 331 334 334 334 334 332 330 327 323 321
350 352 357 362 365 366 367 369 369 369 369 369 370 370 368 367 367 367 367 367 367 367 366 366 366 365 365 364 364 364 365 365 364 364 365 365 365 365 365 365 364 363 362 362 361 361 361 360 360 361 361 361 362 362 362 362 361 359 359 359 357 356 355 355 354 353 349 345 341 337 334 333 331 326 323 328 333 333 333 332 330 329 329 328 327
347 349 351 357 361 363 365 366 368 368 367 366 365 365 364 364 365 365 365 365 364 365 365 365 365 365 364 363 362 362 361 361 362 363 363 364 364 364 363 363 362 362 362 362 361 361 360 361 360 361 361 361 362 362 362 361 361 359 359 359 356 355 355 354 352 348 343 338 336 335 331 330 330 326 325 330 334 332 330 330 329 329 329 329 329
346 346 347 350 353 356 358 359 361 361 359 357 356 358 360 361 362 362 362 361 361 362 364 364 362 362 361 361 360 358 358 359 359 360 360 361 361 362 361 361 361 361 361 362 362 361 361 361 361 361 362 362 362 361 362 362 360 358 357 356 355 354 351 349 347 343 337 333 333 333 329 327 329 328 328 331 333 330 329 329 328 327 327 326 326
345 345 346 348 350 352 353 354 356 357 357 356 356 358 359 360 361 361 361 360 361 361 361 361 360 360 359 359 357 357 357 358 357 357 357 358 358 359 359 360 360 361 361 362 363 362 361 361 361 361 360 360 360 359 359 358 357 356 354 353 353 351 347 344 341 337 332 330 331 330 327 328 331 330 328 329 331 329 328 328 328 327 327 327 327
343 345 345 347 349 350 351 352 353 355 356 357 358 358 359 359 360 360 361 361 361 360 359 359 358 358 357 357 357 357 359 359 358 357 357 357 357 357 358 358 358 359 360 361 361 361 361 361 361 359 357 357 357 356 353 351 350 350 350 348 347 345 342 338 334 330 329 330 330 328 328 330 331 330 329 330 330 329 327 326 326 327 328 328 328
342 343 344 345 347 348 349 349 350 352 353 353 354 355 355 356 357 357 358 358 358 358 358 357 357 357 357 356 355 356 358 358 358 357 356 356 356 356 357 357 358 358 358 358 358 358 358 358 357 354 353 354 353 352 349 347 345 343 341 340 338 336 334 332 330 328 328 329 328 328 330 331 328 327 329 329 327 326 325 326 328 329 329 328 327
338 341 343 343 344 345 346 347 347 348 348 348 349 349 350 352 352 352 353 354 353 354 354 355 354 354 353 351 350 350 350 350 351 351 351 352 353 353 354 354 355 355 355 354 352 352 352 352 351 350 351 350 348 346 344 343 341 339 336 335 333 330 329 329 329 327 328 328 327 328 329 328 325 324 326 327 326 326 327 328 328 328 328 327 327
329 332 337 340 342 342 343 344 344 344 344 344 345 345 346 346 346 347 347 347 348 348 349 350 351 350 347 345 344 344 344 344 344 343 344 345 346 347 348 348 349 349 349 348 347 346 347 347 347 346 346 345 343 341 339 338 336 334 333 332 330 327 328 329 327 324 325 327 328 328 328 327 326 326 327 328 328 328 328 328 328 327 327 327 327
322 324 328 334 338 340 340 341 342 342 342 341 341 341 341 341 340 341 341 341 342 343 344 346 348 348 346 343 342 342 343 343 344 343 342 342 342 343 344 344 344 345 344 343 342 343 343 343 341 340 338 337 336 335 334 333 332 331 330 330 328 327 328 327 325 323 324 328 330 330 329 329 328 328 329 329 328 328 328 328 328 327 327 326 326
324 324 326 329 333 335 336 337 338 338 338 338 338 338 338 337 338 338 338 338 339 340 340 339 339 340 340 339 338 337 338 339 340 340 339 338 337 337 337 338 338 338 338 338 338 337 336 336 335 334 333 332 332 332 331 330 329 329 330 329 327 327 327 326 324 324 327 329 329 329 329 328 328 328 328 328 327 327 327 327 327 327 326 326 326
326 327 327 327 328 330 332 334 335 336 336 337 337 337 337 336 337 337 338 338 338 338 338 337 336 335 335 334 333 332 332 332 333 333 333 333 333 332 332 332 333 333 333 334 333 333 332 331 331 331 331 331 330 329 329 328 328 328 329 327 326 326 327 326 325 325 328 329 329 329 329 329 328 328 328 327 327 327 327 326 327 326 326 326 326
327 328 328 328 328 330 332 334 335 335 335 336 337 336 336 336 336 336 335 336 337 337 337 337 337 336 334 332 331 330 329 328 329 329 329 329 329 329 329 329 329 328 328 329 328 327 327 327 327 328 328 328 328 327 327 327 327 328 327 327 327 327 326 325 325 326 327 328 328 328 328 328 327 326 325 324 324 324 324 323 323 324 324 325 325
327 327 328 328 328 329 331 332 334 334 333 334 335 335 334 334 333 333 332 333 333 333 333 333 333 333 332 330 329 328 327 327 326 326 325 325 325 324 324 324 324 324 324 325 324 324 324 324 324 324 324 324 324 323 323 323 323 323 323 325 326 325 323 324 325 327 327 328 328 328 327 325 323 321 320 319 319 319 321 322 322 323 324 324 324
325 325 325 325 326 326 327 329 330 330 330 331 331 332 331 331 330 330 329 330 330 330 330 329 329 329 329 328 327 326 325 324 324 323 322 321 320 320 321 321 321 321 321 322 321 321 321 321 321 321 321 321 321 320 320 320 320 320 321 321 322 321 321 321 322 323 323 324 324 324 322 321 319 319 319 319 319 320 321 322 323 323 323 323 323
Wind_Speed
45 45 44 43 42 41 41 39 37 35 34 34 34 34 34 34 33 33 31 29 28 27 27 26 25 24 23 22 22 22 21 20 19 18 18 17 17 16 15 14 14 13 13 13 12 11 11 11 11 10 10 10 10 10 10 10 11 11 10 10 10 11 11 11 13 12 8 9 11 12 12 14 15 16 16 18 20 22 23 24 24 25 25 26 27
44 45 44 43 43 42 41 40 38 36 35 34 35 34 34 34 34 33 31 30 28 27 27 29 28 26 24 23 22 22 22 21 20 20 20 19 19 18 17 16 16 14 13 14 14 13 13 13 11 10 10 11 11 11 11 9 10 11 13 12 12 12 12 13 14 16 14 12 13 14 14 15 17 17 18 19 21 22 24 26 26 27 28 28 29
43 44 45 44 44 43 41 41 39 38 36 36 35 35 34 34 34 33 31 30 29 28 28 29 30 28 27 25 23 23 23 23 22 21 21 20 20 20 19 18 18 17 15 14 14 14 14 14 12 11 11 13 13 13 12 11 11 12 13 13 14 14 13 14 15 18 20 19 17 17 17 18 19 20 21 22 23 24 25 26 26 27 28 28 28
42 44 45 45 44 43 42 41 40 39 38 37 36 35 34 34 34 34 32 30 30 30 29 29 29 29 29 27 25 24 25 25 24 23 22 21 21 20 20 19 19 18 18 17 16 16 16 16 15 14 14 14 15 15 14 14 14 15 15 15 16 16 16 16 17 19 22 22 21 20 20 21 22 22 22 23 24 23 24 24 25 26 25 24 23
41 43 45 45 45 44 44 42 41 40 39 38 37 35 34 33 33 34 34 32 30 30 31 30 30 30 30 29 27 26 26 26 26 25 24 23 23 21 20 20 20 19 19 19 18 18 18 18 17 16 15 16 17 17 16 15 15 15 16 17 17 17 18 17 18 19 21 23 23 22 23 24 24 24 24 23 24 24 25 25 24 24 22 21 21
41 43 44 45 45 45 45 43 42 42 41 39 38 36 34 33 33 33 34 33 31 30 31 32 31 31 30 30 29 29 28 28 28 27 25 25 24 24 22 22 22 21 21 21 21 20 20 19 18 17 17 17 17 17 17 16 16 16 16 16 15 16 18 18 19 20 21 23 24 24 24 24 25 26 24 23 23 25 26 25 23 22 21 21 22
41 42 43 44 45 45 45 44 43 42 41 40 38 37 35 33 32 33 33 33 32 30 30 32 32 32 31 31 30 30 30 30 29 29 27 26 26 25 24 23 22 22 22 21 21 20 20 20 20 19 19 18 18 17 17 17 17 16 16 15 15 16 18 19 19 21 22 23 24 25 25 25 26 27 26 24 24 25 24 23 23 22 21 20 21
41 42 43 43 44 45 45 44 43 42 41 39 38 36 36 34 33 32 32 33 33 32 30 30 32 32 32 32 31 30 31 31 31 30 29 28 27 26 25 24 23 22 21 21 20 20 20 20 20 20 19 18 18 18 18 18 18 18 16 16 17 18 19 19 20 20 21 23 24 25 25 26 26 26 26 25 23 23 21 21 24 25 22 20 20
41 42 42 43 44 45 44 43 43 41 40 39 39 37 36 35 34 33 33 33 33 33 31 30 31 32 32 32 32 31 32 32 32 32 30 29 28 28 27 26 25 23 22 21 20 20 19 20 19 19 19 18 18 17 17 18 19 19 18 17 18 18 19 20 21 21 22 23 25 25 26 27 26 26 25 22 21 21 20 21 23 23 21 22 24
41 42 43 44 44 44 44 43 43 41 41 40 40 38 36 35 35 35 34 34 33 33 32 31 31 31 31 32 32 32 33 33 33 32 30 29 28 28 29 28 26 25 24 24 23 21 21 20 20 20 19 19 19 19 18 18 19 19 19 19 19 20 21 22 23 23 23 25 27 27 27 27 27 25 23 21 21 20 19 19 21 23 25 28 30
43 43 43 43 44 44 44 43 43 43 43 42 41 40 38 36 36 36 35 35 33 33 34 33 32 31 31 31 31 31 32 33 33 31 30 29 28 28 29 29 28 27 26 25 25 24 23 22 21 20 21 21 22 22 22 22 21 20 20 20 21 22 24 25 25 26 26 27 28 28 29 29 28 26 23 22 20 19 20 22 25 28 29 30 31
42 43 42 42 43 44 44 44 44 44 43 43 42 42 41 38 37 37 37 36 34 34 34 35 34 32 31 31 31 30 31 32 32 31 30 28 28 28 28 29 29 29 28 27 27 25 25 24 23 22 21 21 22 23 24 25 24 22 22 21 22 23 24 25 27 28 28 29 31 31 31 32 30 28 26 24 23 24 27 29 31 31 29 27 27
40 42 42 42 43 44 44 45 45 44 44 44 43 43 43 41 39 39 38 37 35 35 35 36 36 34 32 31 31 30 30 30 32 31 30 29 28 28 28 29 29 30 30 29 28 27 26 25 25 24 23 22 21 21 23 24 24 24 23 23 23 23 23 25 26 28 29 30 32 33 32 32 33 32 30 29 29 31 32 32 31 30 28 27 29
39 42 43 42 43 43 44 45 45 45 45 44 44 44 44 44 42 40 39 38 37 36 35 35 36 37 35 32 31 31 29 29 30 31 30 29 28 28 28 29 29 30 30 30 29 28 27 26 25 25 24 24 23 22 23 24 26 26 26 26 25 25 25 26 26 27 28 30 32 33 32 31 31 31 30 28 28 29 28 27 27 26 27 29 31
38 42 43 42 42 43 44 45 45 45 45 44 45 45 45 45 44 42 40 39 39 38 37 35 36 37 37 34 32 31 30 29 29 29 29 29 28 28 29 29 30 30 29 29 28 28 28 27 26 25 25 25 25 25 26 27 28 29 29 29 28 27 27 28 27 28 29 29 29 30 29 27 27 26 24 22 22 22 21 22 23 26 29 30 31
38 41 43 43 43 44 44 45 45 45 45 45 45 45 45 46 46 43 40 38 39 39 38 37 36 36 38 37 34 31 30 29 29 29 29 28 27 28 28 29 31 32 30 28 27 27 28 28 28 28 27 26 26 26 27 27 28 30 30 31 31 30 30 30 29 30 30 29 28 28 27 26 25 22 20 19 18 17 18 21 23 25 27 28 28
39 42 44 45 45 45 45 45 46 45 46 46 46 46 46 46 46 44 41 38 36 38 39 39 37 36 36 37 37 34 32 30 30 30 30 29 28 27 28 28 30 33 34 33 31 29 29 29 30 30 30 28 28 28 28 28 28 30 31 31 31 32 32 31 31 31 31 31 30 28 26 24 21 19 17 17 17 18 19 22 23 23 23 23 23
41 43 45 46 47 46 46 46 46 46 47 47 47 47 46 46 46 45 44 39 35 35 37 38 37 35 34 35 37 37 35 33 32 32 31 31 30 29 28 29 30 32 33 35 35 34 34 33 33 33 33 32 30 30 30 30 30 31 31 31 32 33 33 32 31 32 31 29 28 26 23 20 17 17 17 17 18 19 20 22 20 17 18 19 19
44 46 47 46 46 46 46 46 46 47 47 47 47 46 46 46 45 44 44 41 35 33 33 34 35 34 34 34 35 36 36 36 35 35 35 34 33 32 31 31 31 31 31 32 33 34 36 37 37 37 37 35 33 33 33 33 33 33 32 32 33 33 33 32 31 30 28 26 25 23 21 19 18 18 18 19 19 19 20 19 16 15 17 19 19
46 46 46 45 44 44 45 45 45 46 46 46 45 45 44 44 44 44 45 44 38 33 31 31 31 31 31 32 33 34 35 36 36 37 37 37 36 35 34 34 33 33 32 31 31 32 33 35 37 38 38 37 36 35 35 36 36 35 34 34 34 34 32 30 29 26 24 23 23 22 21 21 20 19 19 19 19 19 19 16 14 15 18 19 18
44 44 44 44 44 44 44 45 44 44 44 44 43 43 42 43 42 43 44 44 41 36 33 31 29 29 29 30 31 32 34 35 36 36 36 37 36 36 36 36 35 33 32 31 31 32 32 33 34 35 36 36 36 36 36 36 36 36 36 36 35 34 32 30 28 26 25 25 24 23 22 22 21 21 20 17 17 17 17 15 13 15 18 20 20
42 43 44 43 43 43 43 44 43 41 40 41 42 41 40 41 40 40 42 42 40 39 36 33 30 29 28 29 29 30 31 33 33 33 34 34 35 35 36 35 33 32 32 32 31 31 32 32 32 33 33 33 34 34 34 34 33 34 35 34 33 33 32 32 31 29 29 28 27 25 24 24 24 25 23 21 19 17 16 17 17 17 19 21 21
41 42 43 42 41 41 40 41 41 39 36 38 41 40 39 38 38 38 39 39 39 39 39 37 33 30 28 28 29 29 29 30 31 31 31 31 32 33 33 33 32 31 32 32 32 31 31 31 32 31 31 32 32 32 31 31 31 31 31 30 29 29 30 31 32 32 32 32 32 31 29 29 29 29 27 26 24 19 17 19 21 20 20 20 21
40 41 42 42 40 38 37 38 39 37 34 35 38 40 39 37 36 37 38 37 37 38 39 39 37 34 31 29 28 28 28 29 31 31 31 30 30 30 30 30 31 31 31 32 31 31 31 31 31 30 30 30 30 30 29 29 28 29 28 28 27 27 29 31 32 33 34 34 34 34 33 33 33 31 29 27 24 19 18 20 22 22 22 22 23
40 41 41 41 40 37 34 35 37 36 34 35 37 39 39 37 36 36 36 36 36 37 37 38 38 38 36 32 30 29 28 29 31 32 32 32 32 31 30 30 30 30 30 30 30 31 31 30 29 28 28 27 26 26 26 26 25 26 26 26 27 28 30 32 32 32 34 34 34 34 33 32 30 28 26 24 21 18 18 20 23 25 26 27 24
40 41 40 40 39 37 34 34 35 36 35 33 33 36 39 38 37 37 37 37 36 36 36 36 37 38 38 35 32 30 29 29 30 31 32 33 33 32 31 30 30 30 30 29 30 31 31 30 30 29 27 26 25 26 26 26 25 26 26 26 27 29 31 32 32 32 33 33 32 31 29 27 24 22 23 23 21 19 18 19 22 25 25 23 18
40 40 39 39 38 36 36 36 35 35 35 32 29 31 36 38 37 37 38 37 37 36 37 37 37 37 37 37 35 32 30 30 30 31 32 32 32 31 30 29 28 29 30 31 30 30 30 30 31 31 29 28 27 28 28 28 27 28 28 28 28 29 31 32 32 32 31 31 30 28 26 23 21 22 23 22 22 21 20 20 21 21 18 14 10
40 40 38 37 37 36 36 37 35 34 35 34 31 31 35 36 37 38 39 39 38 38 38 38 38 37 37 36 36 34 33 32 31 32 34 33 32 30 29 28 27 28 30 30 29 29 29 30 31 31 31 31 31 31 31 31 31 31 30 31 31 31 32 33 32 31 30 29 27 26 24 23 22 23 23 23 24 24 22 21 20 16 11 9 6
38 39 37 34 35 37 37 37 36 34 34 34 32 32 33 34 34 36 38 38 38 38 38 39 38 37 35 35 34 34 34 34 34 33 33 32 30 29 28 25 24 25 25 26 27 28 30 31 31 31 31 32 33 34 35 35 35 34 32 33 34 34 33 33 32 32 31 30 28 27 26 25 24 24 25 24 25 26 25 21 16 10 8 7 4
37 37 36 34 35 37 37 36 36 34 33 33 33 32 32 32 32 33 35 36 35 34 34 35 35 34 33 31 31 32 32 32 32 31 31 30 28 27 26 22 21 20 18 20 24 29 31 33 33 33 33 33 34 35 36 37 37 34 31 30 31 30 28 27 27 27 27 28 28 27 26 26 26 26 27 25 25 27 26 19 12 8 7 6 5
36 36 35 35 37 38 37 36 37 35 33 32 33 33 32 31 30 30 30 31 32 32 31 30 30 30 29 28 28 29 28 27 26 26 28 28 26 25 24 22 20 19 16 18 23 29 31 33 35 35 35 35 36 36 34 35 35 32 29 29 28 26 24 25 25 24 24 25 26 25 24 25 27 27 27 26 26 26 22 16 10 8 6 6 7
32 35 35 36 37 37 36 36 36 35 32 31 32 33 32 31 30 30 28 27 28 29 30 30 28 27 27 27 28 28 26 25 25 25 25 26 25 24 23 22 22 21 20 20 24 28 31 33 35 36 36 37 38 36 33 32 31 29 28 29 28 25 24 24 25 25 27 27 25 24 24 25 24 22 21 21 21 19 17 13 9 7 5 6 8
28 31 33 36 38 37 35 34 35 34 32 31 31 30 31 31 30 30 30 28 26 26 28 30 29 27 26 27 28 28 26 25 25 25 25 25 24 23 23 22 22 22 23 24 25 27 30 32 34 36 37 37 36 34 31 29 28 26 27 30 29 25 24 24 24 25 28 28 26 26 25 22 18 15 15 16 15 13 12 12 9 7 6 7 9
28 28 27 29 36 38 33 31 33 33 30 29 30 28 28 30 30 30 32 30 27 26 26 28 30 29 28 27 27 26 25 24 24 25 25 25 24 24 23 23 23 25 26 26 26 26 28 30 32 35 35 35 33 30 27 27 27 26 27 30 30 26 24 24 24 25 26 25 22 20 17 14 13 14 14 12 9 8 10 11 10 10 10 9 9
29 27 23 22 31 36 30 26 30 31 27 26 27 26 24 26 28 28 30 30 29 27 25 25 27 28 28 28 27 26 26 26 24 24 25 25 25 25 25 25 26 27 28 28 28 28 28 29 30 32 33 33 32 28 24 25 27 27 27 29 29 27 25 25 25 26 24 20 16 13 12 13 14 13 11 8 6 7 10 11 12 13 13 11 10
22 23 21 20 26 31 27 24 28 30 27 25 25 24 23 24 24 23 24 25 25 25 25 26 26 27 27 28 28 28 28 28 27 25 24 25 25 26 27 27 28 28 29 29 29 28 28 29 29 29 29 30 29 27 25 24 25 27 27 28 28 27 26 26 27 27 24 20 17 13 12 14 13 9 7 8 9 9 10 12 15 16 13 8 6
11 16 19 21 24 26 25 25 27 29 29 26 24 24 23 22 21 20 18 17 17 19 21 22 22 24 26 28 30 30 30 30 29 28 27 27 27 28 28 28 29 29 29 29 28 28 29 29 28 26 25 24 25 26 27 26 24 26 27 27 28 28 28 29 30 28 24 23 22 19 17 16 14 10 8 9 11 11 13 15 16 15 10 5 3
5 10 15 19 21 22 24 24 24 25 25 24 22 22 21 18 18 18 16 15 15 15 14 13 13 16 20 23 26 28 29 29 30 31 32 32 32 31 30 30 29 29 29 29 27 26 27 28 26 24 23 24 26 27 27 27 28 29 29 29 29 30 30 30 31 29 24 21 21 22 20 16 13 10 8 9 11 12 13 15 14 10 7 5 3
7 8 13 17 19 19 20 21 22 22 22 21 20 19 16 14 14 15 13 12 12 12 11 13 14 15 15 14 15 17 20 24 27 31 33 34 34 33 31 30 28 27 27 26 25 23 22 23 24 25 26 27 28 28 28 28 29 29 29 29 29 30 29 28 28 25 20 16 17 18 17 14 10 8 9 11 11 13 14 14 12 10 7 3 1
10 9 12 17 21 21 19 17 17 17 17 16 15 14 14 13 13 14 13 13 13 14 15 16 16 14 11 10 9 10 13 15 18 21 25 28 30 30 27 26 27 27 26 24 23 22 21 22 25 27 27 27 28 29 29 30 29 27 27 28 28 27 25 23 21 18 16 14 12 11 11 11 10 10 12 13 12 13 13 12 10 11 9 6 5
12 12 12 14 19 21 20 19 19 19 19 19 18 17 17 17 17 17 18 17 16 15 15 13 11 9 7 6 6 8 9 8 9 11 13 15 18 21 22 24 26 27 26 25 24 23 22 23 25 26 25 25 25 25 25 26 26 25 25 27 28 27 23 19 16 14 14 13 11 9 10 12 12 13 15 17 15 15 14 12 10 9 6 4 5
17 16 13 14 19 23 23 20 18 18 20 21 21 20 19 18 17 17 17 16 14 12 9 7 5 4 3 5 8 10 9 8 9 10 11 12 15 18 21 23 23 23 23 23 22 21 21 22 23 23 21 20 21 21 19 18 18 18 18 20 23 23 19 13 9 9 12 13 10 9 10 13 13 13 14 16 16 15 14 11 8 5 4 5 7
17 17 15 14 17 21 23 20 17 15 15 15 15 15 15 14 14 13 12 12 10 8 6 4 3 3 6 9 11 12 11 9 10 11 13 16 18 19 20 21 22 21 21 19 18 19 20 22 22 20 18 17 18 18 17 16 14 12 12 12 13 14 13 10 8 10 12 12 10 10 13 15 15 14 13 13 13 12 10 8 5 4 5 8 9
11 12 11 12 13 15 16 16 15 14 11 10 9 9 8 8 7 7 7 7 5 5 5 5 4 4 6 7 9 10 8 7 9 11 13 15 17 18 18 19 20 20 19 18 16 16 17 17 17 17 17 17 16 15 15 16 15 15 16 16 16 15 15 14 13 13 13 11 10 11 12 11 10 9 9 8 7 7 7 7 7 7 8 9 9
12 12 9 7 10 13 13 12 11 10 7 5 5 6 6 5 4 3 3 3 3 3 4 4 6 7 8 8 9 8 7 7 9 10 10 11 13 14 14 15 16 17 17 16 15 15 15 15 15 15 15 15 14 13 12 13 14 15 15 15 14 14 15 16 14 13 14 13 12 11 9 7 6 6 7 7 8 8 9 9 8 8 9 9 9
13 14 11 8 7 9 10 9 7 5 3 2 4 5 6 7 6 5 5 5 5 5 5 5 7 10 10 9 9 9 9 10 10 11 11 12 12 12 12 12 12 12 13 13 13 13 14 14 13 13 13 13 13 12 13 14 15 16 16 15 14 14 16 16 14 13 15 15 14 13 13 12 11 11 11 11 11 10 10 11 11 11 11 12 11
12 12 12 10 7 5 5 5 4 3 2 3 5 6 7 8 9 9 9 9 9 10 10 10 10 10 9 9 9 9 10 10 11 11 11 11 11 10 9 8 8 8 8 9 10 10 10 11 11 11 12 13 13 14 14 15 16 16 16 16 16 16 16 15 15 16 18 18 17 17 17 17 15 13 12 11 11 10 10 11 12 13 13 13 12
12 12 14 13 11 9 7 6 5 4 5 7 8 8 9 10 10 10 9 10 10 10 11 11 10 9 9 9 9 9 9 9 9 8 7 7 6 6 6 5 4 4 4 5 6 7 7 8 9 10 12 13 13 13 13 14 15 16 16 15 16 17 16 15 15 17 20 20 18 17 18 17 15 13 10 9 10 10 10 11 12 13 13 13 12
12 12 13 13 12 11 11 9 7 8 9 9 8 9 10 11 11 10 9 8 8 8 8 8 8 8 8 8 8 8 8 8 8 7 5 5 5 5 4 4 4 5 6 8 9 9 10 11 11 12 13 13 13 13 14 15 15 16 16 16 16 16 15 14 15 18 20 19 17 15 14 14 13 13 12 13 14 14 13 13 14 14 14 15 15
13 13 14 14 13 13 12 10 9 9 10 9 9 9 9 10 10 10 9 8 8 7 7 7 7 8 8 8 8 8 8 8 8 8 7 8 8 9 9 9 10 10 11 12 12 12 12 12 12 13 13 13 13 13 14 14 14 13 13 14 15 15 15 15 16 18 20 20 19 18 17 16 17 18 19 19 20 19 17 17 17 17 17 17 17
14 14 15 15 15 14 14 12 11 10 10 10 10 10 10 10 11 11 10 9 8 8 7 7 7 8 8 9 9 10 10 11 11 12 12 13 14 14 14 14 14 14 14 15 15 14 14 13 13 12 12 11 10 10 9 7 7 7 7 9 11 12 13 14 15 17 19 20 21 22 22 22 22 21 20 20 20 19 19 19 19 19 19 20 20
Wind_Direction
206 208 210 212 214 216 218 218 217 215 212 210 213 215 215 217 222 226 225 226 227 223 217 219 226 229 230 228 226 230 239 241 239 238 236 234 234 234 233 237 241 238 236 240 244 243 244 248 247 243 245 248 251 248 243 252 266 274 277 275 270 272 273 273 280 284 272 260 269 272 270 275 280 280 281 284 287 292 298 304 308 310 312 313 314
203 207 208 209 212 216 218 219 216 213 211 210 212 215 216 217 220 223 222 221 223 223 220 218 221 226 229 229 227 226 232 240 240 238 239 236 234 235 231 231 241 245 239 238 240 239 241 248 250 248 251 253 254 255 253 251 258 271 282 287 281 276 275 276 281 289 293 294 294 294 297 298 297 297 298 298 301 302 304 308 311 311 312 313 313
203 206 206 207 211 215 216 218 217 214 213 213 214 216 218 218 219 220 218 217 219 220 221 220 220 222 225 228 227 223 225 234 238 237 241 241 238 237 234 233 239 245 245 244 245 244 243 247 251 252 254 255 256 256 253 243 239 247 261 274 281 282 279 277 277 284 294 301 304 304 307 308 305 306 307 305 305 305 304 307 309 310 311 311 310
200 204 206 208 210 213 213 215 217 216 215 215 215 217 219 220 220 220 217 214 215 218 219 222 223 223 222 223 225 223 222 228 234 234 236 242 244 241 239 238 240 245 249 248 247 248 248 248 251 254 253 253 255 256 254 249 241 237 238 245 256 265 268 268 272 280 288 295 302 307 309 309 307 308 309 307 306 306 306 308 310 311 312 311 310
197 203 207 207 208 212 213 213 216 217 215 215 217 215 215 218 220 220 217 214 214 216 217 220 223 224 223 221 222 224 224 225 230 232 231 236 244 246 244 242 242 246 251 251 249 249 250 251 252 251 248 247 252 254 253 253 251 247 246 246 248 256 263 267 273 279 283 290 298 304 306 307 308 311 312 312 312 313 313 314 316 318 319 319 320
196 200 204 206 207 210 213 213 215 218 216 215 217 216 212 212 216 219 218 214 211 213 216 218 220 224 227 226 223 225 226 226 228 232 232 232 239 245 246 246 246 248 251 254 255 253 250 250 251 252 251 249 250 252 253 254 255 254 255 256 258 262 267 273 279 283 285 289 294 298 303 306 309 312 315 314 312 313 315 317 321 323 324 323 322
196 198 202 204 205 209 213 214 214 216 216 213 213 214 209 206 210 216 216 213 209 209 213 217 220 223 227 229 227 227 228 228 230 233 234 233 237 242 244 246 248 250 251 254 256 256 253 251 252 253 254 253 252 252 253 254 257 260 260 263 266 267 268 272 276 280 283 287 291 295 300 304 307 309 312 311 308 310 314 317 319 321 320 316 312
197 199 200 201 203 207 211 212 212 213 213 210 208 208 207 205 207 211 213 212 209 207 210 216 219 221 225 229 229 229 231 231 232 235 235 235 236 239 242 244 246 250 253 254 255 256 252 250 253 255 253 251 251 252 252 253 255 259 262 265 268 271 274 277 277 278 280 283 287 291 294 298 301 304 308 309 309 313 317 316 315 316 316 311 306
198 199 200 201 203 205 206 207 208 209 210 209 206 205 206 205 205 209 212 212 210 207 208 213 218 219 222 227 229 229 230 232 233 235 237 235 234 236 240 243 244 247 252 255 257 256 251 244 243 249 253 256 256 255 254 253 253 257 261 265 270 273 276 279 279 280 281 282 286 289 290 293 297 301 306 308 308 310 313 312 310 309 307 304 303
199 200 201 203 204 203 203 204 206 207 208 209 206 204 205 205 204 207 212 213 210 208 206 210 217 220 221 226 229 228 229 233 236 236 238 237 235 234 239 243 245 246 248 252 254 255 253 248 242 240 244 253 259 262 262 260 257 258 261 265 270 273 276 278 279 280 281 283 287 290 289 291 296 299 299 300 301 303 303 299 294 294 296 299 303
202 202 203 205 204 203 203 203 203 205 207 209 207 203 203 205 205 205 210 214 212 209 206 207 213 219 221 226 231 231 230 233 237 238 237 237 236 235 238 243 246 248 248 249 252 254 253 252 250 244 240 242 248 253 258 261 263 262 264 268 272 273 275 275 276 278 280 282 286 288 287 289 293 294 293 294 294 292 287 286 288 293 298 302 306
202 203 205 205 204 204 204 203 203 204 205 208 208 205 202 203 205 205 208 213 214 211 208 207 209 215 219 224 229 234 235 234 237 239 238 237 236 236 237 240 244 248 249 250 252 256 255 252 250 249 246 244 245 249 253 259 264 266 268 270 273 274 274 273 274 276 278 279 282 284 286 288 289 288 287 287 286 284 286 290 294 298 301 302 303
202 203 205 206 205 205 204 203 203 204 205 207 208 206 203 202 204 206 207 212 214 213 211 209 209 211 217 220 224 230 235 236 236 239 240 239 237 236 237 239 241 244 249 252 254 256 258 258 254 250 248 247 248 252 258 262 266 270 272 273 274 275 276 276 276 277 278 278 280 284 289 290 288 287 287 287 288 289 291 293 295 296 298 300 302
202 203 205 206 206 205 205 204 204 205 206 207 207 207 205 203 204 206 207 210 213 214 214 213 211 211 214 219 223 227 231 234 236 238 240 240 239 238 238 239 241 242 246 251 254 255 257 259 259 258 254 250 247 247 253 262 268 272 275 277 278 279 279 280 280 280 281 280 281 286 291 292 290 291 292 291 291 291 292 292 293 294 297 301 305
203 204 204 206 207 206 206 205 205 205 206 206 207 208 207 205 204 205 206 208 212 215 216 215 215 214 214 217 223 227 227 230 234 238 240 241 240 239 239 238 239 240 242 246 250 254 256 258 259 260 260 258 254 249 250 257 265 271 275 278 280 282 282 282 282 283 283 283 284 288 291 292 292 294 294 293 292 293 293 290 290 294 300 304 308
204 204 204 206 207 207 206 206 206 206 206 206 208 209 209 207 205 205 205 207 211 215 216 216 217 218 217 217 220 224 225 227 231 236 242 244 243 240 239 238 237 237 237 238 241 247 252 256 257 259 261 262 262 260 257 257 261 267 272 277 281 283 284 285 287 287 287 288 289 291 292 294 295 296 296 296 296 297 293 289 293 299 303 306 310
206 205 205 206 208 208 208 207 207 206 206 207 208 209 210 208 207 205 205 206 208 212 216 217 218 219 220 220 220 222 224 226 229 234 240 244 244 241 240 239 238 237 236 234 234 236 241 247 252 256 260 263 265 265 263 261 261 265 269 273 277 280 283 286 287 289 290 291 291 292 293 295 296 296 296 296 297 295 292 295 303 307 303 304 310
208 207 206 206 208 209 208 208 208 207 207 207 209 210 210 209 208 207 206 206 206 209 214 217 218 219 221 223 225 226 226 228 230 233 237 241 242 242 243 241 241 241 240 239 238 237 240 244 247 251 257 262 266 267 266 264 264 266 269 271 271 274 278 281 281 283 286 287 288 289 290 290 291 292 292 291 291 292 295 303 311 307 298 302 310
210 209 208 207 207 208 208 209 209 208 208 208 209 209 210 210 209 208 208 208 207 208 213 216 218 219 222 224 228 231 231 231 233 236 238 240 241 242 244 245 247 248 249 249 248 246 246 248 251 254 257 262 264 266 267 267 267 269 270 270 270 273 276 278 278 281 283 282 282 284 284 282 282 283 284 285 287 291 298 305 307 299 297 306 310
210 209 208 206 206 207 208 209 209 209 209 208 207 208 210 210 210 210 211 211 210 210 213 215 216 218 221 224 228 233 236 237 238 241 243 244 244 244 245 247 251 254 256 257 258 257 255 253 254 257 259 262 264 266 267 268 270 271 270 269 271 275 276 275 275 276 275 273 273 275 275 274 275 276 278 282 287 293 299 302 299 294 294 296 296
209 208 207 205 205 206 207 208 209 209 209 207 207 209 211 211 211 211 212 212 212 212 213 214 216 218 221 223 225 230 236 240 242 242 244 246 247 247 247 250 254 256 258 259 261 262 261 260 259 260 261 263 265 265 266 268 269 270 269 269 272 273 272 270 269 268 266 264 264 265 265 267 270 271 272 277 285 293 297 295 287 279 276 279 284
206 206 206 204 203 204 206 209 209 208 208 208 208 209 210 210 211 211 212 212 214 214 214 215 216 219 222 224 225 228 234 241 245 244 244 246 248 248 249 253 256 257 257 258 260 261 263 264 265 265 265 266 266 266 266 267 267 267 268 269 269 268 268 267 266 264 261 259 258 256 255 255 258 261 263 269 278 282 276 273 271 269 269 273 280
204 204 204 203 202 203 205 207 207 206 207 209 209 208 207 207 210 212 212 212 213 215 215 215 216 219 221 224 228 231 233 237 243 246 247 247 248 249 251 254 256 256 256 256 259 262 264 264 264 265 266 267 268 268 268 268 267 267 268 268 267 266 265 264 262 261 258 256 255 254 253 253 254 259 266 273 277 275 265 262 265 266 266 270 278
203 203 203 202 201 202 204 206 206 204 205 207 207 207 206 205 206 210 211 212 213 215 216 217 217 218 221 224 228 231 232 234 238 243 246 248 250 251 252 253 254 255 255 256 258 260 260 260 260 261 262 264 266 267 268 268 268 267 267 267 265 262 259 257 257 257 256 255 256 255 255 256 258 264 271 272 271 268 262 258 259 260 262 271 281
200 201 202 201 201 201 202 205 205 203 204 206 206 206 205 204 204 207 210 211 212 214 216 217 218 219 221 223 226 228 230 233 236 239 242 246 250 252 254 254 253 253 254 255 255 253 252 254 256 257 258 260 261 262 263 264 265 266 267 266 262 259 257 256 256 257 257 258 259 258 259 261 264 268 268 263 260 258 255 256 259 261 263 268 274
199 199 200 200 200 201 201 203 205 203 203 205 205 204 204 204 203 206 209 210 210 212 214 216 218 220 222 223 224 227 229 232 236 241 243 245 249 252 254 255 255 254 254 253 252 250 249 249 249 250 251 252 253 256 260 262 264 265 265 264 263 261 261 260 259 259 260 261 260 261 264 265 265 261 255 251 248 247 253 261 263 261 261 264 271
198 197 198 199 199 200 200 201 202 201 200 201 200 199 201 203 204 205 208 209 209 211 213 215 217 219 221 222 223 225 228 231 235 240 244 246 248 249 251 253 253 251 249 247 246 248 248 248 247 246 246 247 249 252 256 257 258 259 261 264 266 267 266 265 263 262 263 263 263 265 265 260 253 248 246 246 241 242 254 266 264 262 265 269 280
198 196 197 198 199 199 200 200 199 196 196 197 195 194 198 203 206 208 210 210 210 211 212 215 217 219 221 223 224 225 227 230 232 236 241 244 247 249 252 254 253 248 245 243 242 243 245 247 248 247 246 247 247 249 252 254 255 256 259 262 266 268 268 265 262 262 261 260 259 259 254 248 242 240 243 244 241 243 256 264 262 264 271 274 277
196 195 194 194 197 198 199 199 198 195 193 194 195 195 198 202 206 210 212 213 212 214 215 216 217 219 221 224 225 225 226 229 230 234 240 244 246 252 257 258 255 251 248 245 241 240 242 244 245 246 247 247 247 247 250 253 255 256 259 262 265 267 266 261 257 257 258 257 255 250 245 244 243 242 242 240 240 247 258 262 262 266 263 253 231
193 192 192 194 197 198 197 197 196 193 191 191 193 195 198 200 204 209 213 214 212 214 217 217 217 219 220 223 227 229 232 235 235 235 239 243 246 253 259 259 256 254 252 246 240 238 238 240 242 244 245 247 248 247 248 251 253 255 260 263 263 263 261 258 257 257 256 255 252 247 244 245 245 242 240 240 245 253 259 259 259 257 244 221 182
193 193 194 197 198 196 194 193 192 190 189 189 193 196 195 195 200 207 212 214 213 213 216 219 220 222 222 224 229 232 234 237 236 234 236 240 245 250 254 254 251 248 244 238 234 234 236 237 239 241 243 245 248 248 249 251 251 250 252 254 255 255 252 250 254 257 256 252 250 248 247 247 245 243 244 246 249 252 253 253 250 240 218 184 180
196 197 197 198 197 194 192 190 189 188 187 188 193 197 194 192 196 201 206 212 215 216 217 219 221 224 224 223 226 229 230 231 232 231 233 237 241 245 247 248 247 244 241 236 232 232 234 236 238 240 241 243 246 247 248 248 248 247 245 246 248 249 246 242 242 247 252 254 253 251 248 244 242 244 244 241 238 240 248 255 253 237 207 179 194
203 205 203 200 197 192 190 191 188 185 186 188 191 194 194 193 196 199 202 208 214 216 217 216 216 218 219 219 223 228 229 230 231 231 232 236 238 239 239 241 242 242 242 242 239 237 236 237 239 241 242 243 246 247 246 246 246 244 243 246 247 246 246 244 238 237 245 251 252 250 248 243 238 233 226 221 222 232 248 256 246 228 212 194 199
208 216 218 209 197 190 187 189 187 182 183 188 190 192 193 195 198 202 203 206 210 213 215 215 214 215 217 219 223 226 227 229 230 231 233 235 236 236 236 237 237 237 241 244 245 244 243 243 244 245 245 245 246 246 244 245 245 241 241 246 249 247 246 248 243 238 243 248 246 242 239 230 217 211 210 215 228 236 236 240 238 226 216 202 197
205 221 232 216 193 186 184 185 184 181 179 182 187 191 194 196 199 204 207 209 212 214 216 217 217 218 218 220 223 225 227 230 232 233 234 234 235 236 237 238 238 240 244 246 247 247 248 249 250 250 248 246 245 246 244 242 243 243 242 244 248 249 248 249 245 239 238 238 232 221 214 208 202 199 200 211 238 239 226 228 233 230 225 212 200
201 214 222 204 183 179 179 176 177 180 179 176 177 183 189 191 194 200 208 213 215 218 222 226 227 226 224 224 226 228 230 232 233 234 235 236 236 238 239 241 243 247 249 249 249 248 249 251 252 253 251 247 246 249 251 247 244 245 245 244 245 247 246 246 243 236 231 234 233 220 205 199 194 190 193 204 215 215 206 211 225 233 234 226 211
181 185 190 184 175 173 173 167 167 175 179 177 175 179 182 184 185 189 196 201 203 209 220 227 231 232 231 232 232 233 233 234 235 236 237 237 237 239 241 243 247 252 256 256 254 252 251 252 252 251 250 248 246 249 254 253 245 241 242 242 244 245 243 242 239 236 237 242 237 219 202 200 208 221 231 229 229 219 203 209 226 235 238 245 254
100 134 146 157 163 168 170 165 162 168 173 174 176 178 179 181 185 185 188 193 198 204 214 219 223 227 231 234 237 238 238 238 238 238 238 239 239 240 242 244 248 254 259 260 260 258 254 252 251 250 246 244 244 246 248 246 243 241 243 245 244 242 239 237 238 243 250 244 224 206 197 201 216 233 235 231 236 229 212 213 225 233 250 290 324
54 90 109 121 131 141 152 159 161 162 161 158 158 160 160 163 172 175 176 180 186 193 200 203 207 213 218 223 230 235 237 239 239 239 239 240 241 242 245 247 250 254 256 258 261 264 260 252 248 248 245 244 245 247 246 244 241 240 241 242 241 239 237 238 241 245 242 225 207 206 208 206 212 226 216 207 219 224 216 215 218 214 220 252 182
63 68 88 106 112 113 118 127 136 143 144 138 137 143 146 145 152 162 164 163 169 179 187 193 196 199 199 203 218 234 242 245 244 243 242 241 242 243 245 246 246 245 245 246 249 251 249 242 240 242 244 244 246 248 249 250 248 242 238 238 237 236 236 236 233 225 212 201 206 225 225 208 205 213 203 193 208 223 220 217 218 212 211 218 219
64 51 58 87 101 103 107 113 114 115 123 130 138 148 152 153 158 164 165 165 168 174 177 180 182 180 178 197 238 255 250 235 227 229 233 234 233 232 232 233 234 235 236 237 238 237 234 232 235 239 242 243 244 246 248 250 252 250 246 242 239 236 234 233 229 218 204 197 203 210 201 190 193 200 195 191 199 212 211 210 216 221 230 257 273
66 63 62 73 81 85 93 105 113 116 123 132 138 141 143 148 153 155 156 158 160 161 163 167 174 180 207 270 274 260 241 225 220 219 215 209 209 213 217 222 227 230 231 232 233 232 229 230 234 237 238 238 242 246 248 248 249 249 246 241 236 233 230 229 225 200 183 185 194 194 187 186 187 189 192 197 203 209 212 214 216 223 245 265 272
62 72 77 78 77 80 85 93 103 110 113 119 124 124 126 133 137 137 140 146 147 150 163 175 191 244 273 274 256 233 220 218 220 216 209 205 204 207 212 217 223 227 228 228 230 229 229 230 233 233 235 241 246 246 242 238 230 218 207 199 198 197 193 189 180 170 173 188 202 193 185 191 194 191 196 209 213 212 217 222 227 249 260 257 261
41 52 67 79 86 90 92 97 105 110 107 108 116 117 115 120 123 119 120 127 132 146 171 188 212 238 244 231 213 202 195 191 192 195 200 203 203 204 208 213 217 221 224 225 225 225 226 229 233 236 241 245 245 237 228 222 211 196 185 184 185 182 175 169 167 167 170 184 200 200 200 210 213 206 210 226 232 230 233 233 233 246 258 260 264
32 31 38 63 82 85 86 91 100 105 104 112 133 141 142 151 160 150 145 170 193 189 180 189 198 193 181 172 175 177 169 160 165 172 183 193 198 200 203 207 211 216 218 217 216 220 227 232 234 235 232 229 226 219 209 202 196 188 184 186 192 191 182 176 177 178 176 177 185 194 200 211 222 223 228 238 243 246 246 241 238 245 251 252 260
43 44 46 51 63 73 77 78 81 85 88 102 122 130 133 136 141 141 143 155 165 159 150 162 180 182 177 174 177 177 176 180 186 187 188 192 198 201 202 206 211 215 215 211 210 215 219 218 212 204 194 188 188 184 173 167 167 169 170 173 178 183 186 189 193 190 182 179 181 184 186 195 209 220 222 220 221 228 234 237 245 258 260 257 260
51 59 66 68 64 62 60 56 53 54 67 86 94 96 95 97 105 119 132 137 140 141 141 147 159 169 172 174 175 174 177 185 193 194 190 189 192 194 195 198 204 206 206 206 205 203 199 191 183 176 168 164 164 163 163 165 168 169 170 174 180 184 188 192 192 188 186 187 190 191 192 198 206 211 212 211 214 222 232 239 248 258 262 263 268
65 67 70 70 66 62 64 70 79 92 100 103 103 102 102 103 107 117 130 137 138 138 140 146 157 166 169 170 171 172 174 177 181 181 178 177 181 187 191 196 196 189 185 188 191 188 182 177 176 176 175 174 173 171 172 175 178 179 181 185 189 190 192 195 195 195 197 198 197 195 196 200 206 213 221 226 228 230 235 244 252 259 261 263 269
79 79 80 80 77 76 81 92 101 104 105 105 103 104 109 114 117 119 124 131 135 137 140 147 157 167 171 170 168 170 174 178 179 177 171 161 157 161 165 161 153 151 155 159 161 162 163 166 170 176 181 183 182 180 179 180 183 187 192 195 196 198 204 211 211 209 209 211 212 211 210 213 221 232 244 254 257 257 257 259 265 271 271 269 268
85 88 92 94 95 96 99 101 99 101 106 108 106 108 113 116 116 118 120 122 126 130 132 136 143 149 151 150 149 151 156 161 160 155 148 142 138 140 142 141 142 146 152 154 154 155 159 162 165 170 174 177 178 179 181 184 188 194 200 205 207 211 219 225 224 221 220 223 227 231 235 240 247 252 257 262 266 268 267 266 267 269 270 272 273
91 94 97 99 100 103 105 102 99 102 107 110 111 115 119 120 119 120 122 122 124 127 128 128 133 137 138 141 143 144 144 143 142 139 137 135 136 138 140 141 142 143 145 145 145 146 148 150 153 156 160 165 169 173 179 186 195 206 217 223 228 232 235 237 237 236 235 237 241 246 251 255 258 259 260 261 261 261 261 262 264 265 267 270 272